CW2157 Weather Reports


time (UTC)temp
F
wind
direction
speed
knots
gust
knots
rain 1hr
in
rain 24hr
in
rain mn
in
humidity
%
barometer
mb
20210920043204 65 114 0.9 1.7 0.00 0.00 0.00 87 1022.5
20210920042704 66 114 0.9 1.7 0.00 0.00 0.00 87 1022.5
20210920042204 66 114 0.9 2.6 0.00 0.00 0.00 87 1022.4
20210920041704 66 114 0.9 2.6 0.00 0.00 0.00 87 1022.4
20210920041205 66 113 1.7 2.6 0.00 0.00 0.00 87 1022.4
20210920040705 66 101 0.9 2.6 0.00 0.00 0.00 87 1022.3
20210920040205 66 99 1.7 2.6 0.00 0.00 0.00 87 1022.3
20210920035705 66 104 1.7 2.6 0.00 0.00 0.00 87 1022.2
20210920035205 66 96 1.7 2.6 0.00 0.00 0.00 86 1022.2
20210920034705 66 102 1.7 2.6 0.00 0.00 0.00 87 1022.3
20210920034205 66 93 0.9 5.2 0.00 0.00 0.00 86 1022.2
20210920033705 66 102 1.7 7.0 0.00 0.00 0.00 86 1022.2
20210920033205 66 101 1.7 2.6 0.00 0.00 0.00 86 1022.2
20210920032705 66 98 0.9 2.6 0.00 0.00 0.00 86 1022.1
20210920032205 66 98 1.7 5.2 0.00 0.00 0.00 86 1022.1
20210920031705 66 78 0.9 1.7 0.00 0.00 0.00 86 1022.0
20210920031204 66 77 0.9 2.6 0.00 0.00 0.00 84 1022.0
20210920030704 67 77 0.9 2.6 0.00 0.00 0.00 84 1022.1
20210920030205 67 75 0.9 2.6 0.00 0.00 0.00 85 1022.0
20210920025705 67 74 1.7 2.6 0.00 0.00 0.00 84 1022.0
20210920025205 67 97 1.7 2.6 0.00 0.00 0.00 84 1022.0
20210920024705 67 97 0.9 2.6 0.00 0.00 0.00 83 1022.0
20210920024205 67 97 1.7 2.6 0.00 0.00 0.00 83 1021.9
20210920023705 67 117 1.7 2.6 0.00 0.00 0.00 84 1021.8
20210920023205 67 120 2.6 5.2 0.00 0.00 0.00 83 1021.8
20210920022705 67 116 1.7 5.2 0.00 0.00 0.00 82 1021.7
20210920022205 67 94 2.6 5.2 0.00 0.00 0.00 82 1021.6
20210920021704 67 94 2.6 7.0 0.00 0.00 0.00 83 1021.6
20210920021204 67 99 2.6 5.2 0.00 0.00 0.00 82 1021.6
20210920020704 67 104 1.7 2.6 0.00 0.00 0.00 83 1021.5
20210920020204 67 103 1.7 2.6 0.00 0.00 0.00 83 1021.5
20210920015705 67 99 0.9 2.6 0.00 0.00 0.00 85 1021.4
20210920015205 66 93 2.6 5.2 0.00 0.00 0.00 84 1021.4
20210920014704 66 81 1.7 2.6 0.00 0.00 0.00 85 1021.2
20210920014204 66 68 1.7 2.6 0.00 0.00 0.00 85 1021.1
20210920013705 66 55 0.9 1.7 0.00 0.00 0.00 85 1021.0
20210920013204 66 55 0.0 0.9 0.00 0.00 0.00 82 1020.9
20210920012704 66 55 0.9 1.7 0.00 0.00 0.00 80 1020.7
20210920012205 66 55 0.9 1.7 0.00 0.00 0.00 80 1020.7
20210920011705 66 55 0.9 1.7 0.00 0.00 0.00 80 1020.7
20210920011205 66 55 0.9 1.7 0.00 0.00 0.00 80 1020.7
20210920010705 66 55 0.9 1.7 0.00 0.00 0.00 80 1020.7
20210920010204 66 55 0.9 1.7 0.00 0.00 0.00 81 1020.7
20210920005705 66 55 0.9 2.6 0.00 0.00 0.00 81 1020.7
20210920005205 66 55 1.7 2.6 0.00 0.00 0.00 81 1020.7
20210920004704 66 46 0.9 2.6 0.00 0.00 0.00 77 1020.6
20210920004205 66 27 1.7 2.6 0.00 0.00 0.00 77 1020.6
20210920003704 66 27 0.9 1.7 0.00 0.00 0.00 76 1020.6
20210920003204 66 26 0.9 1.7 0.00 0.00 0.00 76 1020.5
20210920002705 66 26 0.0 1.7 0.00 0.00 0.00 75 1020.4
20210920002206 66 26 0.0 0.9 0.00 0.00 0.00 74 1020.3
20210920001705 67 27 0.0 0.9 0.00 0.00 0.00 73 1020.1
20210920001204 67 26 0.0 2.6 0.00 0.00 0.00 74 1020.1
20210920000705 67 26 0.0 0.9 0.00 0.00 0.00 73 1020.1
20210920000205 68 27 0.9 0.9 0.00 0.00 0.00 72 1020.1
20210919235706 68 27 0.0 1.7 0.00 0.00 0.00 71 1020.0
20210919235205 68 27 0.0 1.7 0.00 0.00 0.00 71 1020.0
20210919234705 69 27 0.9 1.7 0.00 0.00 0.00 70 1020.0
20210919234205 69 26 0.9 1.7 0.00 0.00 0.00 70 1019.9
20210919233705 69 27 0.9 1.7 0.00 0.00 0.00 69 1019.9
20210919233205 70 27 0.0 0.0 0.00 0.00 0.00 68 1019.8
20210919232705 70 27 0.0 0.9 0.00 0.00 0.00 68 1019.7
20210919232205 71 26 0.0 1.7 0.00 0.00 0.00 68 1019.6
20210919231705 71 27 0.0 2.6 0.00 0.00 0.00 67 1019.6
20210919231205 72 27 0.9 2.6 0.00 0.00 0.00 66 1019.5
20210919230705 72 27 0.9 2.6 0.00 0.00 0.00 65 1019.5
20210919230205 72 25 0.9 2.6 0.00 0.00 0.00 64 1019.5
20210919225705 73 41 0.9 1.7 0.00 0.00 0.00 63 1019.4
20210919225204 73 41 0.9 2.6 0.00 0.00 0.00 63 1019.4
20210919224704 73 41 1.7 2.6 0.00 0.00 0.00 62 1019.5
20210919224204 74 39 0.9 2.6 0.00 0.00 0.00 62 1019.4
20210919223704 74 39 1.7 2.6 0.00 0.00 0.00 60 1019.4
20210919223204 74 39 1.7 2.6 0.00 0.00 0.00 60 1019.4
20210919222704 75 39 1.7 2.6 0.00 0.00 0.00 59 1019.4
20210919222205 75 37 1.7 2.6 0.00 0.00 0.00 59 1019.4
20210919221705 75 38 0.9 2.6 0.00 0.00 0.00 58 1019.4
20210919221205 75 38 1.7 4.3 0.00 0.00 0.00 57 1019.3
20210919220705 75 42 2.6 5.2 0.00 0.00 0.00 56 1019.2
20210919220205 76 39 2.6 4.3 0.00 0.00 0.00 56 1019.3
20210919215705 76 37 2.6 7.0 0.00 0.00 0.00 56 1019.2
20210919215204 76 24 3.5 5.2 0.00 0.00 0.00 54 1019.2
20210919214704 76 44 2.6 6.1 0.00 0.00 0.00 54 1019.1
20210919214205 76 56 4.3 7.0 0.00 0.00 0.00 52 1019.1
20210919213705 76 54 4.3 6.1 0.00 0.00 0.00 54 1019.1
20210919213205 77 60 3.5 7.8 0.00 0.00 0.00 52 1019.1
20210919212704 77 53 4.3 7.8 0.00 0.00 0.00 53 1019.1
20210919212204 77 55 5.2 10.4 0.00 0.00 0.00 52 1019.1
20210919211704 77 43 4.3 7.0 0.00 0.00 0.00 50 1019.1
20210919211205 78 27 4.3 7.8 0.00 0.00 0.00 48 1019.1
20210919210705 78 52 2.6 5.2 0.00 0.00 0.00 47 1019.1
20210919210205 78 43 3.5 5.2 0.00 0.00 0.00 46 1019.1
20210919205705 79 32 2.6 7.8 0.00 0.00 0.00 46 1019.1
20210919205204 79 51 6.1 8.7 0.00 0.00 0.00 48 1019.1
20210919204704 80 6 3.5 7.0 0.00 0.00 0.00 47 1019.1
20210919204204 80 10 4.3 10.4 0.00 0.00 0.00 47 1019.2
20210919203705 80 349 4.3 8.7 0.00 0.00 0.00 45 1019.2
20210919203204 80 35 2.6 7.0 0.00 0.00 0.00 45 1019.3
20210919202705 80 31 6.1 11.3 0.00 0.00 0.00 46 1019.3
20210919202204 80 23 5.2 10.4 0.00 0.00 0.00 47 1019.4
20210919201704 80 39 5.2 8.7 0.00 0.00 0.00 46 1019.5
20210919201205 80 42 5.2 10.4 0.00 0.00 0.00 46 1019.5
20210919200705 80 16 4.3 7.8 0.00 0.00 0.00 48 1019.5
20210919200204 80 6 4.3 8.7 0.00 0.00 0.00 49 1019.6
20210919195705 80 19 5.2 10.4 0.00 0.00 0.00 48 1019.6
20210919195205 80 32 5.2 8.7 0.00 0.00 0.00 48 1019.7
20210919194705 80 339 4.3 8.7 0.00 0.00 0.00 48 1019.7
20210919194205 80 352 4.3 10.4 0.00 0.00 0.00 46 1019.8
20210919193705 80 20 6.1 10.4 0.00 0.00 0.00 48 1019.8
20210919193204 80 20 4.3 12.2 0.00 0.00 0.00 50 1019.9
20210919192704 80 12 6.1 11.3 0.00 0.00 0.00 53 1019.9
20210919192204 80 52 5.2 10.4 0.00 0.00 0.00 50 1019.9
20210919191704 80 10 4.3 10.4 0.00 0.00 0.00 52 1019.9
20210919191204 80 16 5.2 10.4 0.00 0.00 0.00 54 1020.0
20210919190704 80 340 4.3 10.4 0.00 0.00 0.00 51 1020.0
20210919190205 80 336 4.3 8.7 0.00 0.00 0.00 53 1020.1
20210919185705 80 37 6.1 10.4 0.00 0.00 0.00 51 1020.1
20210919185205 80 23 5.2 10.4 0.00 0.00 0.00 51 1020.1
20210919184705 79 15 5.2 13.0 0.00 0.00 0.00 52 1020.2
20210919184205 79 40 6.1 11.3 0.00 0.00 0.00 55 1020.3
20210919183705 79 12 6.1 12.2 0.00 0.00 0.00 52 1020.3
20210919183205 79 348 5.2 11.3 0.00 0.00 0.00 56 1020.3
20210919182704 79 23 5.2 8.7 0.00 0.00 0.00 53 1020.2
20210919182205 79 306 4.3 10.4 0.00 0.00 0.00 54 1020.2
20210919181705 78 38 2.6 7.8 0.00 0.00 0.00 58 1020.3
20210919181205 78 358 4.3 10.4 0.00 0.00 0.00 57 1020.3
20210919180705 78 355 5.2 10.4 0.00 0.00 0.00 56 1020.4
20210919180205 78 339 4.3 8.7 0.00 0.00 0.00 58 1020.5
20210919175705 78 56 4.3 8.7 0.00 0.00 0.00 60 1020.5
20210919175205 78 30 4.3 10.4 0.00 0.00 0.00 61 1020.5
20210919174705 78 334 4.3 10.4 0.00 0.00 0.00 60 1020.5
20210919174205 78 358 4.3 10.4 0.00 0.00 0.00 59 1020.5
20210919173704 78 347 2.6 10.4 0.00 0.00 0.00 61 1020.5
20210919173204 78 18 4.3 8.7 0.00 0.00 0.00 59 1020.5
20210919172704 78 8 1.7 5.2 0.00 0.00 0.00 58 1020.5
20210919172205 78 351 1.7 10.4 0.00 0.00 0.00 56 1020.5
20210919171705 78 3 5.2 8.7 0.00 0.00 0.00 58 1020.6
20210919171205 78 329 6.1 10.4 0.00 0.00 0.00 55 1020.6
20210919170705 78 0 6.1 12.2 0.00 0.00 0.00 59 1020.6
20210919170205 78 346 2.6 7.8 0.00 0.00 0.00 60 1020.7
20210919165705 78 32 6.1 11.3 0.00 0.00 0.00 56 1020.7
20210919165205 78 17 6.1 13.0 0.00 0.00 0.00 57 1020.6
20210919164705 78 355 5.2 8.7 0.00 0.00 0.00 56 1020.7
20210919164205 78 45 5.2 10.4 0.00 0.00 0.00 57 1020.6
20210919163705 78 22 4.3 10.4 0.00 0.00 0.00 62 1020.7
20210919163204 78 340 4.3 10.4 0.00 0.00 0.00 58 1020.7
20210919162704 77 8 5.2 10.4 0.00 0.00 0.00 62 1020.7
20210919162205 77 42 5.2 10.4 0.00 0.00 0.00 62 1020.7
20210919161705 77 40 5.2 10.4 0.00 0.00 0.00 63 1020.7
20210919161204 77 30 5.2 10.4 0.00 0.00 0.00 61 1020.7
20210919160704 77 2 2.6 7.8 0.00 0.00 0.00 60 1020.7
20210919160204 77 353 4.3 10.4 0.00 0.00 0.00 60 1020.8
20210919155704 77 25 6.1 10.4 0.00 0.00 0.00 62 1020.8
20210919155204 76 7 5.2 10.4 0.00 0.00 0.00 64 1020.9
20210919154704 76 33 4.3 10.4 0.00 0.00 0.00 66 1020.9
20210919154204 76 7 4.3 8.7 0.00 0.00 0.00 61 1020.9
20210919153704 76 333 4.3 12.2 0.00 0.00 0.00 62 1020.9
20210919153204 76 22 5.2 10.4 0.00 0.00 0.00 63 1020.9
20210919152705 76 321 6.1 10.4 0.00 0.00 0.00 62 1021.0
20210919152205 76 346 6.1 11.3 0.00 0.00 0.00 59 1021.0
20210919151705 76 338 5.2 10.4 0.00 0.00 0.00 61 1021.0
20210919151204 76 339 5.2 8.7 0.00 0.00 0.00 62 1021.0
20210919150704 76 27 5.2 10.4 0.00 0.00 0.00 60 1021.0
20210919150205 76 33 5.2 10.4 0.00 0.00 0.00 61 1021.0
20210919145704 76 358 4.3 8.7 0.00 0.00 0.00 63 1021.0
20210919145204 75 5 4.3 10.4 0.00 0.00 0.00 61 1020.9
20210919144705 75 5 5.2 10.4 0.00 0.00 0.00 63 1020.9
20210919144204 75 1 4.3 10.4 0.00 0.00 0.00 65 1020.9
20210919143704 75 338 5.2 10.4 0.00 0.00 0.00 64 1021.0
20210919143204 75 355 5.2 10.4 0.00 0.00 0.00 64 1020.9
20210919142705 75 330 3.5 7.8 0.00 0.00 0.00 66 1021.0
20210919142204 75 341 4.3 10.4 0.00 0.00 0.00 67 1021.0
20210919141704 75 31 3.5 10.4 0.00 0.00 0.00 66 1021.0
20210919141204 74 28 5.2 8.7 0.00 0.00 0.00 67 1021.1
20210919140705 75 350 3.5 8.7 0.00 0.00 0.00 66 1021.0
20210919140204 75 3 5.2 10.4 0.00 0.00 0.00 65 1020.9
20210919135705 75 20 4.3 10.4 0.00 0.00 0.00 63 1020.9
20210919135204 75 7 4.3 10.4 0.00 0.00 0.00 69 1020.8
20210919134704 74 32 6.1 10.4 0.00 0.00 0.00 68 1020.7
20210919134205 74 45 5.2 8.7 0.00 0.00 0.00 68 1020.6
20210919133704 74 36 6.1 11.3 0.00 0.00 0.00 70 1020.6
20210919133204 74 348 6.1 10.4 0.00 0.00 0.00 69 1020.5
20210919132705 74 3 4.3 7.8 0.00 0.00 0.00 67 1020.4
20210919132205 73 36 7.0 11.3 0.00 0.00 0.00 66 1020.5
20210919131704 73 351 2.6 8.7 0.00 0.00 0.00 65 1020.3
20210919131205 73 355 5.2 8.7 0.00 0.00 0.00 68 1020.2
20210919130704 73 1 4.3 10.4 0.00 0.00 0.00 66 1020.1
20210919130205 73 34 5.2 13.0 0.00 0.00 0.00 69 1020.1
20210919125704 73 18 6.1 12.2 0.00 0.00 0.00 70 1020.1
20210919125205 73 9 5.2 10.4 0.00 0.00 0.00 72 1020.0
20210919124704 73 8 6.1 11.3 0.00 0.00 0.00 75 1019.9
20210919124205 73 32 4.3 10.4 0.00 0.00 0.00 80 1019.9
20210919123705 73 21 5.2 11.3 0.00 0.00 0.00 82 1019.8
20210919123205 72 32 4.3 7.8 0.00 0.00 0.00 83 1019.7
20210919122704 72 45 5.2 10.4 0.00 0.00 0.00 83 1019.7
20210919122205 72 33 4.3 8.7 0.00 0.00 0.00 84 1019.6
20210919121704 71 45 4.3 6.1 0.00 0.00 0.00 84 1019.6
20210919121205 71 43 3.5 7.8 0.00 0.00 0.00 84 1019.6
20210919120705 71 46 4.3 7.8 0.00 0.00 0.00 84 1019.8
20210919120204 71 28 3.5 8.7 0.00 0.00 0.00 84 1019.8
20210919115704 70 13 4.3 7.8 0.00 0.00 0.00 85 1019.7
20210919115204 70 16 4.3 7.8 0.00 0.00 0.00 86 1019.8
20210919114704 70 22 5.2 10.4 0.00 0.00 0.00 87 1019.6
20210919114205 70 36 6.1 10.4 0.00 0.00 0.00 88 1019.5
20210919113704 70 340 4.3 10.4 0.00 0.00 0.00 89 1019.4
20210919113204 69 45 3.5 7.0 0.00 0.00 0.00 90 1019.4
20210919112705 69 33 6.1 11.3 0.00 0.00 0.00 91 1019.4
20210919112204 69 18 5.2 11.3 0.00 0.00 0.00 91 1019.4
20210919111704 69 29 4.3 8.7 0.00 0.00 0.00 92 1019.4
20210919111204 69 351 5.2 8.7 0.00 0.00 0.00 92 1019.3
20210919110704 69 25 4.3 7.8 0.00 0.00 0.00 92 1019.3
20210919110205 69 45 3.5 6.1 0.00 0.00 0.00 92 1019.2
20210919105704 69 15 4.3 7.8 0.00 0.00 0.00 93 1019.2
20210919105204 69 40 3.5 7.8 0.00 0.00 0.00 93 1019.1
20210919104704 69 41 4.3 5.2 0.00 0.00 0.00 93 1019.0
20210919104204 70 37 2.6 7.8 0.00 0.00 0.00 94 1018.9
20210919103704 70 45 4.3 7.0 0.00 0.00 0.00 94 1018.8
20210919103205 70 43 2.6 6.1 0.00 0.00 0.00 94 1018.8
20210919102705 70 52 2.6 4.3 0.00 0.00 0.00 94 1018.7
20210919102205 70 14 2.6 5.2 0.00 0.00 0.00 95 1018.6
20210919101704 70 33 3.5 6.1 0.00 0.00 0.00 95 1018.6
20210919101204 70 33 2.6 6.1 0.00 0.00 0.00 96 1018.5
20210919100704 69 45 3.5 5.2 0.00 0.00 0.00 96 1018.5
20210919100205 69 44 4.3 7.8 0.00 0.00 0.00 96 1018.5
20210919095705 69 37 4.3 7.8 0.00 0.00 0.00 97 1018.5
20210919095205 69 35 2.6 7.8 0.00 0.00 0.00 97 1018.4
20210919094705 69 35 4.3 7.0 0.00 0.00 0.00 97 1018.4
20210919094205 69 37 4.3 6.1 0.00 0.00 0.00 97 1018.4
20210919093704 69 37 4.3 7.8 0.00 0.00 0.00 97 1018.2
20210919093205 69 32 3.5 5.2 0.00 0.00 0.00 97 1018.0
20210919092705 69 43 3.5 6.1 0.00 0.00 0.00 97 1018.0
20210919092204 69 41 4.3 7.8 0.00 0.00 0.00 97 1017.8
20210919091704 69 38 3.5 5.2 0.00 0.00 0.00 100 1017.7
20210919091205 70 14 2.6 6.1 0.00 0.00 0.00 100 1017.7
20210919090705 70 11 2.6 7.0 0.00 0.00 0.00 100 1017.7
20210919090205 70 45 2.6 4.3 0.00 0.00 0.00 100 1017.6
20210919085704 70 25 2.6 7.0 0.00 0.00 0.00 100 1017.6
20210919085204 70 43 2.6 6.1 0.00 0.00 0.00 100 1017.6
20210919084705 70 51 2.6 6.1 0.00 0.00 0.00 100 1017.8
20210919084205 71 43 3.5 7.0 0.00 0.00 0.00 100 1017.7
20210919083705 71 37 2.6 7.8 0.00 0.00 0.00 100 1017.7
20210919083205 71 25 1.7 2.6 0.00 0.00 0.00 100 1017.6
20210919082705 71 265 0.0 0.0 0.00 0.00 0.00 100 1017.5
20210919082205 72 223 0.0 0.0 0.00 0.00 0.00 100 1017.4
20210919081705 72 223 0.0 0.0 0.00 0.00 0.00 100 1017.4
20210919081204 72 223 0.0 0.0 0.00 0.00 0.00 100 1017.2
20210919080705 72 223 0.0 0.0 0.00 0.00 0.00 100 1017.3
20210919080204 72 223 0.0 0.0 0.00 0.00 0.00 100 1017.3
20210919075704 72 223 0.0 0.0 0.00 0.00 0.00 100 1017.3
20210919075204 72 223 0.0 0.0 0.00 0.00 0.00 100 1017.3
20210919074704 72 223 0.0 0.0 0.00 0.00 0.00 100 1017.3
20210919074204 72 222 0.0 0.0 0.00 0.00 0.00 100 1017.3
20210919073704 72 222 0.0 0.0 0.00 0.00 0.00 100 1017.3
20210919073204 72 222 0.0 0.0 0.00 0.00 0.00 100 1017.3
20210919072704 72 222 0.0 0.0 0.00 0.00 0.00 100 1017.3
20210919072205 72 222 0.0 0.9 0.00 0.00 0.00 100 1017.3
20210919071704 71 222 0.0 1.7 0.00 0.00 0.00 100 1017.3
20210919071204 71 221 0.0 0.0 0.00 0.00 0.00 100 1017.4
20210919070704 71 203 0.0 0.0 0.00 0.00 0.00 100 1017.4
20210919070205 71 200 0.0 0.0 0.00 0.00 0.00 100 1017.4
20210919065705 71 200 0.0 0.0 0.00 0.00 0.00 100 1017.4
20210919065204 71 200 0.0 0.0 0.00 0.00 0.00 100 1017.4
20210919064704 71 200 0.0 0.0 0.00 0.00 0.00 100 1017.4
20210919064204 71 200 0.0 0.0 0.00 0.00 0.00 100 1017.4
20210919063705 71 200 0.0 0.0 0.00 0.00 0.00 100 1017.3
20210919063204 71 200 0.0 0.0 0.00 0.00 0.00 100 1017.3
20210919062704 71 200 0.0 0.0 0.00 0.00 0.00 100 1017.3
20210919062205 71 200 0.0 0.0 0.00 0.00 0.00 100 1017.2
20210919061705 71 200 0.0 0.0 0.00 0.00 0.00 100 1017.1
20210919061205 71 200 0.0 0.0 0.00 0.00 0.00 100 1017.2
20210919060705 71 199 0.0 0.0 0.00 0.00 0.00 100 1017.2
20210919060205 71 199 0.0 0.0 0.00 0.00 0.00 100 1017.2
20210919055704 72 199 0.0 0.0 0.00 0.00 0.00 100 1017.2
20210919055205 72 200 0.0 0.0 0.00 0.00 0.00 100 1017.3
20210919054704 72 200 0.0 0.0 0.00 0.00 0.00 100 1017.3
20210919054204 72 200 0.0 0.0 0.00 0.00 0.00 100 1017.2
20210919053705 72 199 0.0 0.0 0.00 0.00 0.00 100 1017.2
20210919053204 72 199 0.0 0.0 0.00 0.00 0.00 100 1017.1
20210919052704 72 199 0.0 0.0 0.00 0.00 0.00 100 1017.2
20210919052205 72 199 0.0 0.0 0.00 0.00 0.00 100 1017.2
20210919051705 72 199 0.0 0.0 0.00 0.00 0.00 100 1017.1
20210919051205 72 199 0.0 0.0 0.00 0.00 0.00 100 1017.1
20210919050705 72 199 0.0 0.0 0.00 0.00 0.00 100 1017.2
20210919050204 72 199 0.0 0.0 0.00 0.00 0.00 100 1017.1
20210919045704 72 199 0.0 0.0 0.00 0.00 0.00 100 1017.2
20210919045204 72 200 0.0 0.0 0.00 0.00 0.00 100 1017.1
20210919044704 72 200 0.0 0.0 0.00 0.00 0.00 100 1017.2
20210919044204 72 200 0.0 0.0 0.00 0.00 0.00 100 1017.3
20210919043704 72 200 0.0 0.0 0.00 0.00 0.00 100 1017.3